TimeCST,TemperatureF,Dew PointF,Humidity,Sea Level PressureIn,VisibilityMPH,Wind Direction,Wind SpeedMPH,Gust SpeedMPH,PrecipitationIn,Events,Conditions,WindDirDegrees,DateUTC
12:53 AM,35.1,28.0,76,30.09,4.0,SSE,11.5,-,0.01,Rain,Light Rain,160,2013-03-09 06:53:00
1:53 AM,34.0,30.9,89,30.06,3.0,ESE,10.4,-,0.05,Rain,Light Rain,120,2013-03-09 07:53:00
2:01 AM,33.8,30.2,87,30.02,2.5,SE,9.2,-,0.01,Rain,Light Rain,130,2013-03-09 08:01:00
2:16 AM,33.8,30.2,87,30.02,2.5,ESE,10.4,-,0.03,Rain,Light Rain,120,2013-03-09 08:16:00
2:53 AM,34.0,30.9,89,30.01,2.5,ESE,10.4,-,0.09,Rain,Light Rain,120,2013-03-09 08:53:00
3:37 AM,33.8,32.0,93,29.96,2.5,SE,9.2,-,0.07,Rain,Light Rain,130,2013-03-09 09:37:00
3:53 AM,35.1,32.0,89,29.98,2.5,ESE,9.2,-,0.09,Rain,Light Rain,120,2013-03-09 09:53:00
4:25 AM,35.6,33.8,93,29.93,3.0,SE,10.4,-,0.03,Rain,Light Rain,130,2013-03-09 10:25:00
4:53 AM,35.1,33.1,92,29.95,3.0,SE,11.5,-,0.05,Rain,Light Rain,130,2013-03-09 10:53:00
5:17 AM,35.6,33.8,93,29.91,2.5,SE,11.5,-,0.01,Rain,Light Rain,130,2013-03-09 11:17:00
5:34 AM,35.6,33.8,93,29.92,3.0,SE,10.4,-,0.01,Rain,Light Rain,140,2013-03-09 11:34:00
5:53 AM,35.1,33.1,92,29.94,3.0,SE,10.4,-,0.01,Rain,Light Rain,130,2013-03-09 11:53:00
6:53 AM,35.1,33.1,92,29.92,4.0,ESE,9.2,-,0.02,,Overcast,120,2013-03-09 12:53:00
7:53 AM,36.0,33.1,89,29.89,3.0,SE,11.5,-,N/A,,Overcast,140,2013-03-09 13:53:00
8:53 AM,36.0,33.1,89,29.86,3.0,SE,11.5,-,N/A,,Overcast,130,2013-03-09 14:53:00
9:53 AM,36.0,33.1,89,29.85,5.0,SSE,9.2,-,N/A,,Overcast,150,2013-03-09 15:53:00
10:24 AM,35.6,33.8,93,29.81,1.8,SE,9.2,-,N/A,,Overcast,140,2013-03-09 16:24:00
10:53 AM,36.0,34.0,93,29.83,1.0,SE,6.9,-,N/A,,Overcast,130,2013-03-09 16:53:00
11:00 AM,35.6,35.6,100,29.80,0.8,ESE,4.6,-,0.00,,Overcast,120,2013-03-09 17:00:00
11:53 AM,36.0,35.1,97,29.79,1.0,East,8.1,-,0.01,Rain,Light Rain,100,2013-03-09 17:53:00
12:31 PM,35.6,35.6,100,29.76,2.5,ESE,8.1,-,0.01,Rain,Light Rain,110,2013-03-09 18:31:00
12:53 PM,36.0,35.1,97,29.78,2.5,ESE,6.9,-,0.02,Rain,Light Rain,120,2013-03-09 18:53:00
1:06 PM,35.6,35.6,100,29.75,3.0,ESE,5.8,-,0.01,Rain,Light Rain,110,2013-03-09 19:06:00
1:53 PM,37.0,35.1,93,29.74,3.0,East,6.9,-,0.03,Rain,Light Rain,100,2013-03-09 19:53:00
2:53 PM,37.0,35.1,93,29.72,3.0,ESE,8.1,-,0.03,Rain,Light Rain,120,2013-03-09 20:53:00
3:04 PM,37.4,35.6,93,29.70,2.0,ESE,6.9,-,0.00,Rain,Light Rain,120,2013-03-09 21:04:00
3:24 PM,35.6,35.6,100,29.70,3.0,SE,8.1,-,0.00,Rain,Light Rain,140,2013-03-09 21:24:00
3:37 PM,35.6,35.6,100,29.70,2.0,SE,6.9,-,0.01,Rain,Light Rain,130,2013-03-09 21:37:00
3:48 PM,35.6,35.6,100,29.70,1.5,SE,5.8,-,0.01,Rain,Light Rain,130,2013-03-09 21:48:00
3:53 PM,36.0,35.1,97,29.72,1.5,SE,5.8,-,0.02,Rain,Light Rain,130,2013-03-09 21:53:00
4:10 PM,37.4,35.6,93,29.68,2.5,East,6.9,-,0.00,,Overcast,100,2013-03-09 22:10:00
4:18 PM,37.4,35.6,93,29.68,3.0,ESE,6.9,-,0.00,,Overcast,110,2013-03-09 22:18:00
4:53 PM,36.0,34.0,93,29.72,3.0,SE,6.9,-,0.00,Rain,Light Rain,140,2013-03-09 22:53:00
5:03 PM,35.6,33.8,93,29.68,1.8,SE,5.8,-,0.01,Rain,Light Rain,130,2013-03-09 23:03:00
5:21 PM,35.6,35.6,100,29.69,3.0,SE,4.6,-,0.02,Rain,Light Rain,140,2013-03-09 23:21:00
5:36 PM,35.6,35.6,100,29.69,2.0,Calm,Calm,-,0.04,Rain,Light Rain,0,2013-03-09 23:36:00
5:53 PM,37.0,35.1,93,29.72,4.0,ESE,3.5,-,0.04,,Overcast,120,2013-03-09 23:53:00
6:30 PM,35.6,35.6,100,29.70,2.0,SE,3.5,-,0.00,Rain,Light Rain,140,2013-03-10 00:30:00
6:37 PM,35.6,35.6,100,29.69,1.5,Calm,Calm,-,0.00,Rain,Light Rain,0,2013-03-10 00:37:00
6:53 PM,36.0,35.1,97,29.73,0.8,SE,3.5,-,0.00,,Overcast,140,2013-03-10 00:53:00
7:14 PM,35.6,35.6,100,29.72,0.5,Calm,Calm,-,0.00,Fog,Fog,0,2013-03-10 01:14:00
7:25 PM,35.6,35.6,100,29.72,0.5,Calm,Calm,-,0.00,Fog-Rain,Light Rain,0,2013-03-10 01:25:00
7:42 PM,35.6,33.8,93,29.71,1.0,Calm,Calm,-,0.01,,Mist,0,2013-03-10 01:42:00
7:50 PM,35.6,33.8,93,29.72,0.5,Calm,Calm,-,0.01,Fog,Fog,0,2013-03-10 01:50:00
7:53 PM,36.0,34.0,93,29.75,0.5,Calm,Calm,-,0.01,Fog,Fog,0,2013-03-10 01:53:00
8:06 PM,35.6,35.6,100,29.73,0.5,Calm,Calm,-,N/A,Fog,Fog,0,2013-03-10 02:06:00
8:21 PM,35.6,33.8,93,29.72,0.2,Calm,Calm,-,N/A,Fog,Fog,0,2013-03-10 02:21:00
8:40 PM,35.6,33.8,93,29.72,0.5,Calm,Calm,-,N/A,Fog,Fog,0,2013-03-10 02:40:00
8:53 PM,36.0,35.1,97,29.75,0.2,Calm,Calm,-,N/A,Fog,Fog,0,2013-03-10 02:53:00
9:05 PM,35.6,35.6,100,29.73,0.2,Calm,Calm,-,N/A,Fog,Fog,0,2013-03-10 03:05:00
9:15 PM,35.6,35.6,100,29.74,0.2,Calm,Calm,-,N/A,Fog,Fog,0,2013-03-10 03:15:00
9:53 PM,35.1,34.0,96,29.77,0.2,Calm,Calm,-,N/A,Fog,Fog,0,2013-03-10 03:53:00
10:53 PM,35.1,34.0,96,29.79,0.5,Variable,3.5,-,0.01,Fog-Rain,Light Rain,0,2013-03-10 04:53:00
11:15 PM,35.6,35.6,100,29.76,1.2,NNW,5.8,-,0.04,Rain,Rain,330,2013-03-10 05:15:00
11:29 PM,35.6,33.8,93,29.77,3.0,NW,5.8,-,0.04,Rain,Light Rain,320,2013-03-10 05:29:00
11:53 PM,35.1,34.0,96,29.80,3.0,NW,6.9,-,0.05,Rain,Light Rain,320,2013-03-10 05:53:00